Year,Month,Day,Hour,Minute,Value (Times are PST for temperature in C)
2014,08,10,00,00,14.70
2014,08,10,00,01,14.70
2014,08,10,00,02,14.70
2014,08,10,00,03,14.70
2014,08,10,00,04,14.70
2014,08,10,00,05,14.60
2014,08,10,00,06,14.60
2014,08,10,00,07,14.60
2014,08,10,00,08,14.60
2014,08,10,00,09,14.60
2014,08,10,00,10,14.60
2014,08,10,00,11,14.60
2014,08,10,00,12,14.60
2014,08,10,00,13,14.60
2014,08,10,00,14,14.60
2014,08,10,00,15,14.60
2014,08,10,00,16,14.50
2014,08,10,00,17,14.50
2014,08,10,00,18,14.40
2014,08,10,00,19,14.40
2014,08,10,00,20,14.40
2014,08,10,00,21,14.40
2014,08,10,00,22,14.40
2014,08,10,00,23,14.40
2014,08,10,00,24,14.40
2014,08,10,00,25,14.30
2014,08,10,00,26,14.30
2014,08,10,00,27,14.30
2014,08,10,00,28,14.30
2014,08,10,00,29,14.30
2014,08,10,00,30,14.30
2014,08,10,00,31,14.30
2014,08,10,00,32,14.30
2014,08,10,00,33,14.30
2014,08,10,00,34,14.30
2014,08,10,00,35,14.30
2014,08,10,00,36,14.30
2014,08,10,00,37,14.30
2014,08,10,00,38,14.30
2014,08,10,00,39,14.30
2014,08,10,00,40,14.30
2014,08,10,00,41,14.30
2014,08,10,00,42,14.30
2014,08,10,00,43,14.30
2014,08,10,00,44,14.30
2014,08,10,00,45,14.30
2014,08,10,00,46,14.30
2014,08,10,00,47,14.30
2014,08,10,00,48,14.30
2014,08,10,00,49,14.30
2014,08,10,00,50,14.30
2014,08,10,00,51,14.30
2014,08,10,00,52,14.30
2014,08,10,00,53,14.30
2014,08,10,00,54,14.30
2014,08,10,00,55,14.20
2014,08,10,00,56,14.20
2014,08,10,00,57,14.20
2014,08,10,00,58,14.20
2014,08,10,00,59,14.20
2014,08,10,01,00,14.20
2014,08,10,01,01,14.20
2014,08,10,01,02,14.20
2014,08,10,01,03,14.10
2014,08,10,01,04,14.10
2014,08,10,01,05,14.10
2014,08,10,01,06,14.10
2014,08,10,01,07,14.00
2014,08,10,01,08,14.00
2014,08,10,01,09,14.00
2014,08,10,01,10,14.00
2014,08,10,01,11,13.90
2014,08,10,01,12,13.90
2014,08,10,01,13,13.90
2014,08,10,01,14,13.90
2014,08,10,01,15,13.90
2014,08,10,01,16,13.90
2014,08,10,01,17,13.90
2014,08,10,01,18,13.90
2014,08,10,01,19,13.80
2014,08,10,01,20,13.80
2014,08,10,01,21,13.90
2014,08,10,01,22,13.80
2014,08,10,01,23,13.80
2014,08,10,01,24,13.80
2014,08,10,01,25,13.80
2014,08,10,01,26,13.80
2014,08,10,01,27,13.80
2014,08,10,01,28,13.80
2014,08,10,01,29,13.80
2014,08,10,01,30,13.80
2014,08,10,01,31,13.80
2014,08,10,01,32,13.80
2014,08,10,01,33,13.80
2014,08,10,01,34,13.80
2014,08,10,01,35,13.80
2014,08,10,01,36,13.80
2014,08,10,01,37,13.80
2014,08,10,01,38,13.70
2014,08,10,01,39,13.70
2014,08,10,01,40,13.70
2014,08,10,01,41,13.70
2014,08,10,01,42,13.70
2014,08,10,01,43,13.70
2014,08,10,01,44,13.70
2014,08,10,01,45,13.70
2014,08,10,01,46,13.70
2014,08,10,01,47,13.70
2014,08,10,01,48,13.70
2014,08,10,01,49,13.70
2014,08,10,01,50,13.70
2014,08,10,01,51,13.70
2014,08,10,01,52,13.70
2014,08,10,01,53,13.60
2014,08,10,01,54,13.60
2014,08,10,01,55,13.60
2014,08,10,01,56,13.60
2014,08,10,01,57,13.60
2014,08,10,01,58,13.60
2014,08,10,01,59,13.60
2014,08,10,02,00,13.60
2014,08,10,02,01,13.60
2014,08,10,02,02,13.60
2014,08,10,02,03,13.60
2014,08,10,02,04,13.60
2014,08,10,02,05,13.60
2014,08,10,02,06,13.60
2014,08,10,02,07,13.60
2014,08,10,02,08,13.60
2014,08,10,02,09,13.50
2014,08,10,02,10,13.50
2014,08,10,02,11,13.50
2014,08,10,02,12,13.50
2014,08,10,02,13,13.50
2014,08,10,02,14,13.50
2014,08,10,02,15,13.50
2014,08,10,02,16,13.50
2014,08,10,02,17,13.50
2014,08,10,02,18,13.40
2014,08,10,02,19,13.40
2014,08,10,02,20,13.40
2014,08,10,02,21,13.40
2014,08,10,02,22,13.40
2014,08,10,02,23,13.40
2014,08,10,02,24,13.40
2014,08,10,02,25,13.40
2014,08,10,02,26,13.30
2014,08,10,02,27,13.30
2014,08,10,02,28,13.30
2014,08,10,02,29,13.30
2014,08,10,02,30,13.30
2014,08,10,02,31,13.30
2014,08,10,02,32,13.30
2014,08,10,02,33,13.30
2014,08,10,02,34,13.30
2014,08,10,02,35,13.30
2014,08,10,02,36,13.30
2014,08,10,02,37,13.30
2014,08,10,02,38,13.30
2014,08,10,02,39,13.30
2014,08,10,02,40,13.30
2014,08,10,02,41,13.30
2014,08,10,02,42,13.30
2014,08,10,02,43,13.30
2014,08,10,02,44,13.30
2014,08,10,02,45,13.30
2014,08,10,02,46,13.30
2014,08,10,02,47,13.30
2014,08,10,02,48,13.30
2014,08,10,02,49,13.30
2014,08,10,02,50,13.30
2014,08,10,02,51,13.30
2014,08,10,02,52,13.30
2014,08,10,02,53,13.30
2014,08,10,02,54,13.30
2014,08,10,02,55,13.30
2014,08,10,02,56,13.30
2014,08,10,02,57,13.30
2014,08,10,02,58,13.30
2014,08,10,02,59,13.30
2014,08,10,03,00,13.20
2014,08,10,03,01,13.20
2014,08,10,03,02,13.20
2014,08,10,03,06,13.20
2014,08,10,03,07,13.20
2014,08,10,03,08,13.10
2014,08,10,03,09,13.10
2014,08,10,03,10,13.10
2014,08,10,03,11,13.10
2014,08,10,03,12,13.10
2014,08,10,03,13,13.10
2014,08,10,03,14,13.10
2014,08,10,03,15,13.10
2014,08,10,03,16,13.00
2014,08,10,03,17,13.00
2014,08,10,03,18,13.00
2014,08,10,03,19,13.00
2014,08,10,03,20,13.00
2014,08,10,03,21,13.00
2014,08,10,03,22,13.00
2014,08,10,03,23,13.00
2014,08,10,03,24,13.00
2014,08,10,03,25,13.00
2014,08,10,03,26,13.00
2014,08,10,03,27,13.00
2014,08,10,03,28,13.00
2014,08,10,03,29,13.00
2014,08,10,03,30,13.00
2014,08,10,03,31,13.00
2014,08,10,03,32,13.00
2014,08,10,03,33,13.00
2014,08,10,03,34,13.00
2014,08,10,03,35,13.00
2014,08,10,03,36,13.00
2014,08,10,03,37,13.00
2014,08,10,03,38,13.10
2014,08,10,03,39,13.10
2014,08,10,03,40,13.10
2014,08,10,03,41,13.10
2014,08,10,03,42,13.10
2014,08,10,03,43,13.10
2014,08,10,03,44,13.10
2014,08,10,03,45,13.10
2014,08,10,03,46,13.20
2014,08,10,03,47,13.20
2014,08,10,03,48,13.20
2014,08,10,03,49,13.20
2014,08,10,03,50,13.20
2014,08,10,03,51,13.20
2014,08,10,03,52,13.20
2014,08,10,03,53,13.20
2014,08,10,03,54,13.20
2014,08,10,03,55,13.10
2014,08,10,03,56,13.10
2014,08,10,03,57,13.10
2014,08,10,03,58,13.10
2014,08,10,03,59,13.10
2014,08,10,04,00,13.10
2014,08,10,04,01,13.10
2014,08,10,04,02,13.10
2014,08,10,04,03,13.10
2014,08,10,04,04,13.10
2014,08,10,04,05,13.10
2014,08,10,04,06,13.10
2014,08,10,04,07,13.10
2014,08,10,04,08,13.10
2014,08,10,04,09,13.10
2014,08,10,04,10,13.10
2014,08,10,04,11,13.20
2014,08,10,04,12,13.20
2014,08,10,04,13,13.20
2014,08,10,04,14,13.20
2014,08,10,04,15,13.20
2014,08,10,04,16,13.20
2014,08,10,04,17,13.20
2014,08,10,04,18,13.20
2014,08,10,04,19,13.30
2014,08,10,04,20,13.30
2014,08,10,04,21,13.30
2014,08,10,04,22,13.30
2014,08,10,04,23,13.30
2014,08,10,04,24,13.30
2014,08,10,04,25,13.30
2014,08,10,04,26,13.30
2014,08,10,04,27,13.30
2014,08,10,04,28,13.30
2014,08,10,04,29,13.30
2014,08,10,04,30,13.30
2014,08,10,04,31,13.30
2014,08,10,04,32,13.30
2014,08,10,04,33,13.30
2014,08,10,04,34,13.30
2014,08,10,04,35,13.30
2014,08,10,04,36,13.30
2014,08,10,04,37,13.30
2014,08,10,04,38,13.30
2014,08,10,04,39,13.40
2014,08,10,04,40,13.40
2014,08,10,04,41,13.40
2014,08,10,04,42,13.40
2014,08,10,04,43,13.40
2014,08,10,04,44,13.40
2014,08,10,04,45,13.40
2014,08,10,04,46,13.50
2014,08,10,04,47,13.50
2014,08,10,04,48,13.60
2014,08,10,04,49,13.60
2014,08,10,04,50,13.60
2014,08,10,04,51,13.70
2014,08,10,04,52,13.70
2014,08,10,04,53,13.70
2014,08,10,04,54,13.80
2014,08,10,04,55,13.80
2014,08,10,04,56,13.80
2014,08,10,04,57,13.80
2014,08,10,04,58,13.80
2014,08,10,04,59,13.90
2014,08,10,05,00,13.90
2014,08,10,05,01,14.00
2014,08,10,05,02,14.00
2014,08,10,05,03,14.10
2014,08,10,05,04,14.20
2014,08,10,05,05,14.30
2014,08,10,05,06,14.40
2014,08,10,05,07,14.40
2014,08,10,05,08,14.50
2014,08,10,05,09,14.60
2014,08,10,05,10,14.70
2014,08,10,05,11,14.80
2014,08,10,05,12,14.90
2014,08,10,05,13,14.90
2014,08,10,05,14,14.90
2014,08,10,05,15,14.90
2014,08,10,05,16,14.90
2014,08,10,05,17,14.90
2014,08,10,05,18,14.90
2014,08,10,05,19,14.80
2014,08,10,05,20,14.80
2014,08,10,05,21,14.80
2014,08,10,05,22,14.80
2014,08,10,05,23,14.80
2014,08,10,05,24,14.80
2014,08,10,05,25,14.80
2014,08,10,05,26,14.80
2014,08,10,05,27,14.80
2014,08,10,05,28,14.90
2014,08,10,05,29,14.90
2014,08,10,05,30,14.90
2014,08,10,05,31,14.90
2014,08,10,05,32,14.90
2014,08,10,05,33,14.90
2014,08,10,05,34,14.90
2014,08,10,05,35,15.00
2014,08,10,05,36,15.00
2014,08,10,05,37,14.90
2014,08,10,05,38,14.90
2014,08,10,05,39,14.90
2014,08,10,05,40,14.90
2014,08,10,05,41,14.90
2014,08,10,05,42,14.90
2014,08,10,05,43,14.90
2014,08,10,05,44,14.90
2014,08,10,05,45,14.80
2014,08,10,05,46,14.80
2014,08,10,05,47,14.80
2014,08,10,05,48,14.80
2014,08,10,05,49,14.80
2014,08,10,05,50,14.80
2014,08,10,05,51,14.90
2014,08,10,05,52,14.90
2014,08,10,05,53,14.90
2014,08,10,05,54,14.90
2014,08,10,05,55,15.00
2014,08,10,05,56,15.00
2014,08,10,05,57,15.00
2014,08,10,05,58,15.00
2014,08,10,05,59,15.10
2014,08,10,06,00,15.10
2014,08,10,06,01,15.10
2014,08,10,06,02,15.10
2014,08,10,06,03,15.20
2014,08,10,06,04,15.20
2014,08,10,06,05,15.20
2014,08,10,06,06,15.20
2014,08,10,06,07,15.20
2014,08,10,06,08,15.20
2014,08,10,06,09,15.20
2014,08,10,06,10,15.20
2014,08,10,06,11,15.20
2014,08,10,06,12,15.30
2014,08,10,06,13,15.30
2014,08,10,06,14,15.30
2014,08,10,06,15,15.40
2014,08,10,06,16,15.40
2014,08,10,06,17,15.40
2014,08,10,06,18,15.40
2014,08,10,06,19,15.40
2014,08,10,06,20,15.40
2014,08,10,06,21,15.40
2014,08,10,06,22,15.40
2014,08,10,06,23,15.40
2014,08,10,06,24,15.50
2014,08,10,06,25,15.50
2014,08,10,06,26,15.50
2014,08,10,06,27,15.60
2014,08,10,06,28,15.60
2014,08,10,06,29,15.60
2014,08,10,06,30,15.70
2014,08,10,06,31,15.70
2014,08,10,06,32,15.70
2014,08,10,06,33,15.70
2014,08,10,06,34,15.70
2014,08,10,06,35,15.70
2014,08,10,06,36,15.70
2014,08,10,06,37,15.70
2014,08,10,06,38,15.70
2014,08,10,06,39,15.70
2014,08,10,06,40,15.70
2014,08,10,06,41,15.70
2014,08,10,06,42,15.70
2014,08,10,06,43,15.70
2014,08,10,06,44,15.70
2014,08,10,06,45,15.80
2014,08,10,06,46,15.80
2014,08,10,06,47,15.80
2014,08,10,06,48,15.90
2014,08,10,06,49,15.90
2014,08,10,06,50,16.00
2014,08,10,06,51,16.00
2014,08,10,06,52,16.10
2014,08,10,06,53,16.10
2014,08,10,06,54,16.20
2014,08,10,06,55,16.20
2014,08,10,06,56,16.30
2014,08,10,06,57,16.40
2014,08,10,06,58,16.50
2014,08,10,06,59,16.60
2014,08,10,07,00,16.70
2014,08,10,07,01,16.80
2014,08,10,07,02,16.90
2014,08,10,07,03,16.90
2014,08,10,07,04,17.00
2014,08,10,07,05,17.10
2014,08,10,07,06,17.10
2014,08,10,07,07,17.20
2014,08,10,07,08,17.30
2014,08,10,07,09,17.40
2014,08,10,07,10,17.50
2014,08,10,07,11,17.60
2014,08,10,07,12,17.70
2014,08,10,07,13,17.80
2014,08,10,07,14,17.80
2014,08,10,07,15,17.90
2014,08,10,07,16,18.00
2014,08,10,07,17,18.00
2014,08,10,07,18,18.10
2014,08,10,07,19,18.10
2014,08,10,07,20,18.20
2014,08,10,07,21,18.30
2014,08,10,07,22,18.30
2014,08,10,07,23,18.40
2014,08,10,07,24,18.50
2014,08,10,07,25,18.50
2014,08,10,07,26,18.60
2014,08,10,07,27,18.70
2014,08,10,07,28,18.80
2014,08,10,07,29,18.80
2014,08,10,07,30,18.90
2014,08,10,07,31,19.00
2014,08,10,07,32,19.00
2014,08,10,07,33,19.10
2014,08,10,07,34,19.10
2014,08,10,07,35,19.10
2014,08,10,07,36,19.20
2014,08,10,07,37,19.20
2014,08,10,07,38,19.20
2014,08,10,07,39,19.30
2014,08,10,07,40,19.30
2014,08,10,07,41,19.30
2014,08,10,07,42,19.40
2014,08,10,07,43,19.40
2014,08,10,07,44,19.40
2014,08,10,07,45,19.50
2014,08,10,07,46,19.50
2014,08,10,07,47,19.50
2014,08,10,07,48,19.60
2014,08,10,07,49,19.60
2014,08,10,07,50,19.60
2014,08,10,07,51,19.70
2014,08,10,07,52,19.70
2014,08,10,07,53,19.70
2014,08,10,07,54,19.70
2014,08,10,07,55,19.70
2014,08,10,07,56,19.80
2014,08,10,07,57,19.80
2014,08,10,07,58,19.80
2014,08,10,07,59,19.90
2014,08,10,08,00,19.90
2014,08,10,08,01,20.00
2014,08,10,08,02,20.00
2014,08,10,08,03,20.10
2014,08,10,08,04,20.10
2014,08,10,08,05,20.20
2014,08,10,08,06,20.20
2014,08,10,08,07,20.20
2014,08,10,08,08,20.30
2014,08,10,08,09,20.30
2014,08,10,08,10,20.40
2014,08,10,08,11,20.40
2014,08,10,08,12,20.40
2014,08,10,08,13,20.40
2014,08,10,08,14,20.50
2014,08,10,08,15,20.50
2014,08,10,08,16,20.60
2014,08,10,08,17,20.60
2014,08,10,08,18,20.70
2014,08,10,08,19,20.70
2014,08,10,08,20,20.70
2014,08,10,08,21,20.70
2014,08,10,08,22,20.80
2014,08,10,08,23,20.80
2014,08,10,08,24,20.80
2014,08,10,08,25,20.90
2014,08,10,08,26,20.90
2014,08,10,08,27,21.00
2014,08,10,08,28,21.00
2014,08,10,08,29,21.00
2014,08,10,08,30,21.10
2014,08,10,08,31,21.10
2014,08,10,08,32,21.10
2014,08,10,08,33,21.20
2014,08,10,08,34,21.20
2014,08,10,08,35,21.30
2014,08,10,08,36,21.30
2014,08,10,08,37,21.40
2014,08,10,08,38,21.40
2014,08,10,08,39,21.50
2014,08,10,08,40,21.50
2014,08,10,08,41,21.60
2014,08,10,08,42,21.60
2014,08,10,08,43,21.70
2014,08,10,08,44,21.70
2014,08,10,08,45,21.70
2014,08,10,08,46,21.80
2014,08,10,08,47,21.80
2014,08,10,08,48,21.80
2014,08,10,08,49,21.90
2014,08,10,08,50,21.90
2014,08,10,08,51,22.00
2014,08,10,08,52,22.00
2014,08,10,08,53,22.10
2014,08,10,08,54,22.10
2014,08,10,08,55,22.20
2014,08,10,08,56,22.30
2014,08,10,08,57,22.30
2014,08,10,08,58,22.40
2014,08,10,08,59,22.40
2014,08,10,09,00,22.50
2014,08,10,09,01,22.50
2014,08,10,09,02,22.50
2014,08,10,09,03,22.50
2014,08,10,09,04,22.50
2014,08,10,09,05,22.50
2014,08,10,09,06,22.50
2014,08,10,09,07,22.60
2014,08,10,09,08,22.60
2014,08,10,09,09,22.60
2014,08,10,09,10,22.70
2014,08,10,09,11,22.70
2014,08,10,09,12,22.60
2014,08,10,09,13,22.70
2014,08,10,09,14,22.60
2014,08,10,09,15,22.60
2014,08,10,09,16,22.60
2014,08,10,09,17,22.70
2014,08,10,09,18,22.70
2014,08,10,09,19,22.70
2014,08,10,09,20,22.70
2014,08,10,09,21,22.70
2014,08,10,09,22,22.70
2014,08,10,09,23,22.70
2014,08,10,09,24,22.80
2014,08,10,09,25,22.80
2014,08,10,09,26,22.80
2014,08,10,09,27,22.90
2014,08,10,09,28,22.90
2014,08,10,09,29,22.90
2014,08,10,09,30,23.00
2014,08,10,09,31,23.00
2014,08,10,09,32,23.00
2014,08,10,09,33,23.10
2014,08,10,09,34,23.10
2014,08,10,09,35,23.20
2014,08,10,09,36,23.20
2014,08,10,09,37,23.30
2014,08,10,09,38,23.30
2014,08,10,09,39,23.40
2014,08,10,09,40,23.40
2014,08,10,09,41,23.40
2014,08,10,09,42,23.40
2014,08,10,09,43,23.40
2014,08,10,09,44,23.50
2014,08,10,09,45,23.50
2014,08,10,09,46,23.60
2014,08,10,09,47,23.60
2014,08,10,09,48,23.60
2014,08,10,09,49,23.70
2014,08,10,09,50,23.70
2014,08,10,09,51,23.80
2014,08,10,09,52,23.80
2014,08,10,09,53,23.80
2014,08,10,09,54,23.90
2014,08,10,09,55,23.90
2014,08,10,09,56,24.00
2014,08,10,09,57,24.00
2014,08,10,09,58,24.10
2014,08,10,09,59,24.10
2014,08,10,10,00,24.20
2014,08,10,10,01,24.20
2014,08,10,10,02,24.20
2014,08,10,10,03,24.20
2014,08,10,10,04,24.30
2014,08,10,10,05,24.40
2014,08,10,10,06,24.40
2014,08,10,10,07,24.40
2014,08,10,10,08,24.50
2014,08,10,10,09,24.50
2014,08,10,10,10,24.60
2014,08,10,10,11,24.70
2014,08,10,10,12,24.70
2014,08,10,10,13,24.80
2014,08,10,10,14,24.90
2014,08,10,10,15,24.90
2014,08,10,10,16,25.00
2014,08,10,10,17,25.00
2014,08,10,10,18,25.00
2014,08,10,10,19,25.00
2014,08,10,10,20,25.10
2014,08,10,10,21,25.10
2014,08,10,10,22,25.10
2014,08,10,10,23,25.10
2014,08,10,10,24,25.10
2014,08,10,10,25,25.10
2014,08,10,10,26,25.10
2014,08,10,10,27,25.00
2014,08,10,10,28,24.90
2014,08,10,10,29,24.90
2014,08,10,10,30,24.90
2014,08,10,10,31,24.90
2014,08,10,10,32,24.90
2014,08,10,10,33,25.00
2014,08,10,10,34,25.00
2014,08,10,10,35,25.10
2014,08,10,10,36,25.10
2014,08,10,10,37,25.10
2014,08,10,10,38,25.10
2014,08,10,10,39,25.10
2014,08,10,10,40,25.20
2014,08,10,10,41,25.20
2014,08,10,10,42,25.20
2014,08,10,10,43,25.30
2014,08,10,10,44,25.30
2014,08,10,10,45,25.30
2014,08,10,10,46,25.20
2014,08,10,10,47,25.20
2014,08,10,10,48,25.20
2014,08,10,10,49,25.20
2014,08,10,10,50,25.20
2014,08,10,10,51,25.20
2014,08,10,10,52,25.20
2014,08,10,10,53,25.20
2014,08,10,10,54,25.30
2014,08,10,10,55,25.30
2014,08,10,10,56,25.40
2014,08,10,10,57,25.40
2014,08,10,10,58,25.40
2014,08,10,10,59,25.40
2014,08,10,11,00,25.50
2014,08,10,11,01,25.50
2014,08,10,11,02,25.50
2014,08,10,11,03,25.60
2014,08,10,11,04,25.60
2014,08,10,11,05,25.60
2014,08,10,11,06,25.60
2014,08,10,11,07,25.60
2014,08,10,11,08,25.60
2014,08,10,11,09,25.70
2014,08,10,11,10,25.70
2014,08,10,11,11,25.70
2014,08,10,11,12,25.70
2014,08,10,11,13,25.70
2014,08,10,11,14,25.70
2014,08,10,11,15,25.70
2014,08,10,11,16,25.80
2014,08,10,11,17,25.80
2014,08,10,11,18,25.80
2014,08,10,11,19,25.90
2014,08,10,11,20,25.90
2014,08,10,11,21,25.90
2014,08,10,11,22,25.90
2014,08,10,11,23,25.90
2014,08,10,11,24,25.90
2014,08,10,11,25,25.90
2014,08,10,11,26,25.90
2014,08,10,11,27,25.90
2014,08,10,11,28,25.90
2014,08,10,11,29,25.80
2014,08,10,11,30,25.80
2014,08,10,11,31,25.80
2014,08,10,11,32,25.80
2014,08,10,11,33,25.80
2014,08,10,11,34,25.80
2014,08,10,11,35,25.90
2014,08,10,11,36,26.00
2014,08,10,11,37,26.00
2014,08,10,11,38,26.00
2014,08,10,11,39,26.10
2014,08,10,11,40,26.10
2014,08,10,11,41,26.10
2014,08,10,11,42,26.20
2014,08,10,11,43,26.20
2014,08,10,11,44,26.20
2014,08,10,11,45,26.30
2014,08,10,11,46,26.30
2014,08,10,11,47,26.30
2014,08,10,11,48,26.40
2014,08,10,11,49,26.50
2014,08,10,11,50,26.60
2014,08,10,11,51,26.60
2014,08,10,11,52,26.70
2014,08,10,11,53,26.70
2014,08,10,11,54,26.70
2014,08,10,11,55,26.80
2014,08,10,11,56,26.80
2014,08,10,11,57,26.80
2014,08,10,11,58,26.80
2014,08,10,11,59,26.80
2014,08,10,12,00,26.80
2014,08,10,12,01,26.80
2014,08,10,12,02,26.80
2014,08,10,12,03,26.80
2014,08,10,12,04,26.90
2014,08,10,12,05,26.90
2014,08,10,12,06,26.90
2014,08,10,12,07,26.90
2014,08,10,12,08,26.90
2014,08,10,12,09,26.90
2014,08,10,12,10,26.80
2014,08,10,12,11,26.80
2014,08,10,12,12,26.80
2014,08,10,12,13,26.80
2014,08,10,12,14,26.80
2014,08,10,12,15,26.90
2014,08,10,12,16,27.00
2014,08,10,12,17,27.00
2014,08,10,12,18,27.10
2014,08,10,12,19,27.10
2014,08,10,12,20,27.20
2014,08,10,12,21,27.10
2014,08,10,12,22,27.10
2014,08,10,12,23,27.10
2014,08,10,12,24,27.10
2014,08,10,12,25,27.10
2014,08,10,12,26,27.10
2014,08,10,12,27,27.20
2014,08,10,12,28,27.20
2014,08,10,12,29,27.30
2014,08,10,12,30,27.40
2014,08,10,12,31,27.40
2014,08,10,12,32,27.40
2014,08,10,12,33,27.40
2014,08,10,12,34,27.30
2014,08,10,12,35,27.40
2014,08,10,12,36,27.40
2014,08,10,12,37,27.40
2014,08,10,12,38,27.50
2014,08,10,12,39,27.50
2014,08,10,12,40,27.50
2014,08,10,12,41,27.50
2014,08,10,12,42,27.60
2014,08,10,12,43,27.60
2014,08,10,12,44,27.70
2014,08,10,12,45,27.70
2014,08,10,12,46,27.70
2014,08,10,12,47,27.80
2014,08,10,12,48,27.80
2014,08,10,12,49,27.90
2014,08,10,12,50,28.00
2014,08,10,12,51,28.10
2014,08,10,12,52,28.20
2014,08,10,12,53,28.30
2014,08,10,12,54,28.40
2014,08,10,12,55,28.40
2014,08,10,12,56,28.50
2014,08,10,12,57,28.60
2014,08,10,12,58,28.60
2014,08,10,12,59,28.70
2014,08,10,13,00,28.70
2014,08,10,13,01,28.60
2014,08,10,13,02,28.60
2014,08,10,13,03,28.60
2014,08,10,13,04,28.50
2014,08,10,13,05,28.50
2014,08,10,13,06,28.50
2014,08,10,13,07,28.50
2014,08,10,13,08,28.60
2014,08,10,13,09,28.60
2014,08,10,13,10,28.60
2014,08,10,13,11,28.70
2014,08,10,13,12,28.70
2014,08,10,13,13,28.80
2014,08,10,13,14,28.80
2014,08,10,13,15,28.80
2014,08,10,13,16,28.80
2014,08,10,13,17,28.80
2014,08,10,13,18,28.80
2014,08,10,13,19,28.70
2014,08,10,13,20,28.70
2014,08,10,13,21,28.70
2014,08,10,13,22,28.70
2014,08,10,13,23,28.70
2014,08,10,13,24,28.80
2014,08,10,13,25,28.80
2014,08,10,13,26,28.80
2014,08,10,13,27,28.70
2014,08,10,13,28,28.60
2014,08,10,13,29,28.60
2014,08,10,13,30,28.50
2014,08,10,13,31,28.50
2014,08,10,13,32,28.50
2014,08,10,13,33,28.50
2014,08,10,13,34,28.60
2014,08,10,13,35,28.70
2014,08,10,13,36,28.80
2014,08,10,13,37,28.80
2014,08,10,13,38,28.90
2014,08,10,13,39,28.90
2014,08,10,13,40,28.90
2014,08,10,13,41,28.90
2014,08,10,13,42,29.00
2014,08,10,13,43,29.10
2014,08,10,13,44,29.10
2014,08,10,13,45,29.20
2014,08,10,13,46,29.30
2014,08,10,13,47,29.30
2014,08,10,13,48,29.40
2014,08,10,13,49,29.40
2014,08,10,13,50,29.30
2014,08,10,13,51,29.30
2014,08,10,13,52,29.40
2014,08,10,13,53,29.40
2014,08,10,13,54,29.40
2014,08,10,13,55,29.50
2014,08,10,13,56,29.50
2014,08,10,13,57,29.60
2014,08,10,13,58,29.70
2014,08,10,13,59,29.70
2014,08,10,14,00,29.80
2014,08,10,14,01,29.80
2014,08,10,14,02,29.80
2014,08,10,14,03,29.80
2014,08,10,14,04,29.80
2014,08,10,14,05,29.80
2014,08,10,14,06,29.80
2014,08,10,14,07,29.90
2014,08,10,14,08,29.90
2014,08,10,14,09,29.90
2014,08,10,14,10,29.80
2014,08,10,14,11,29.90
2014,08,10,14,12,29.90
2014,08,10,14,13,29.90
2014,08,10,14,14,29.90
2014,08,10,14,15,29.90
2014,08,10,14,16,29.90
2014,08,10,14,17,29.90
2014,08,10,14,18,29.90
2014,08,10,14,19,30.00
2014,08,10,14,20,30.10
2014,08,10,14,21,30.10
2014,08,10,14,22,30.20
2014,08,10,14,23,30.30
2014,08,10,14,24,30.40
2014,08,10,14,25,30.40
2014,08,10,14,26,30.50
2014,08,10,14,27,30.60
2014,08,10,14,28,30.70
2014,08,10,14,29,30.80
2014,08,10,14,30,30.80
2014,08,10,14,31,30.80
2014,08,10,14,32,30.80
2014,08,10,14,33,30.70
2014,08,10,14,34,30.60
2014,08,10,14,35,30.50
2014,08,10,14,36,30.50
2014,08,10,14,37,30.40
2014,08,10,14,38,30.40
2014,08,10,14,39,30.50
2014,08,10,14,40,30.50
2014,08,10,14,41,30.50
2014,08,10,14,42,30.50
2014,08,10,14,43,30.50
2014,08,10,14,44,30.60
2014,08,10,14,45,30.60
2014,08,10,14,46,30.60
2014,08,10,14,47,30.60
2014,08,10,14,48,30.60
2014,08,10,14,49,30.60
2014,08,10,14,50,30.50
2014,08,10,14,51,30.50
2014,08,10,14,52,30.40
2014,08,10,14,53,30.40
2014,08,10,14,54,30.40
2014,08,10,14,55,30.40
2014,08,10,14,56,30.50
2014,08,10,14,57,30.50
2014,08,10,14,58,30.40
2014,08,10,14,59,30.50
2014,08,10,15,00,30.50
2014,08,10,15,01,30.60
2014,08,10,15,02,30.60
2014,08,10,15,03,30.70
2014,08,10,15,04,30.70
2014,08,10,15,05,30.80
2014,08,10,15,06,30.80
2014,08,10,15,07,30.90
2014,08,10,15,08,30.90
2014,08,10,15,09,31.00
2014,08,10,15,10,31.00
2014,08,10,15,11,31.00
2014,08,10,15,12,31.00
2014,08,10,15,13,31.00
2014,08,10,15,14,31.00
2014,08,10,15,15,31.00
2014,08,10,15,16,30.90
2014,08,10,15,17,30.90
2014,08,10,15,18,30.90
2014,08,10,15,19,30.90
2014,08,10,15,20,30.90
2014,08,10,15,21,31.00
2014,08,10,15,22,31.00
2014,08,10,15,23,31.10
2014,08,10,15,24,31.10
2014,08,10,15,25,31.20
2014,08,10,15,26,31.30
2014,08,10,15,27,31.30
2014,08,10,15,28,31.40
2014,08,10,15,29,31.40
2014,08,10,15,30,31.50
2014,08,10,15,31,31.50
2014,08,10,15,32,31.60
2014,08,10,15,33,31.70
2014,08,10,15,34,31.70
2014,08,10,15,35,31.80
2014,08,10,15,36,31.80
2014,08,10,15,37,31.80
2014,08,10,15,38,31.80
2014,08,10,15,39,31.80
2014,08,10,15,40,31.80
2014,08,10,15,41,31.80
2014,08,10,15,42,31.90
2014,08,10,15,43,31.90
2014,08,10,15,44,31.90
2014,08,10,15,45,31.90
2014,08,10,15,46,32.00
2014,08,10,15,47,32.00
2014,08,10,15,48,31.90
2014,08,10,15,49,31.80
2014,08,10,15,50,31.70
2014,08,10,15,51,31.60
2014,08,10,15,52,31.50
2014,08,10,15,53,31.30
2014,08,10,15,54,31.20
2014,08,10,15,55,31.10
2014,08,10,15,56,31.00
2014,08,10,15,57,30.90
2014,08,10,15,58,30.60
2014,08,10,15,59,30.40
2014,08,10,16,00,30.20
2014,08,10,16,01,30.00
2014,08,10,16,02,29.70
2014,08,10,16,03,29.50
2014,08,10,16,04,29.40
2014,08,10,16,05,29.30
2014,08,10,16,06,29.20
2014,08,10,16,07,29.20
2014,08,10,16,08,29.10
2014,08,10,16,09,29.10
2014,08,10,16,10,29.00
2014,08,10,16,11,28.90
2014,08,10,16,12,28.80
2014,08,10,16,13,28.80
2014,08,10,16,14,28.80
2014,08,10,16,15,28.70
2014,08,10,16,16,28.60
2014,08,10,16,17,28.50
2014,08,10,16,18,28.50
2014,08,10,16,19,28.40
2014,08,10,16,20,28.40
2014,08,10,16,21,28.30
2014,08,10,16,22,28.30
2014,08,10,16,23,28.20
2014,08,10,16,24,28.20
2014,08,10,16,25,28.20
2014,08,10,16,26,28.20
2014,08,10,16,27,28.10
2014,08,10,16,28,28.10
2014,08,10,16,29,28.00
2014,08,10,16,30,28.00
2014,08,10,16,31,27.90
2014,08,10,16,32,28.00
2014,08,10,16,33,28.00
2014,08,10,16,34,28.00
2014,08,10,16,35,27.90
2014,08,10,16,36,27.90
2014,08,10,16,37,27.90
2014,08,10,16,38,27.90
2014,08,10,16,39,27.90
2014,08,10,16,40,27.90
2014,08,10,16,41,27.90
2014,08,10,16,42,28.00
2014,08,10,16,43,28.00
2014,08,10,16,44,28.10
2014,08,10,16,45,28.10
2014,08,10,16,46,28.10
2014,08,10,16,47,28.10
2014,08,10,16,48,28.20
2014,08,10,16,49,28.30
2014,08,10,16,50,28.30
2014,08,10,16,51,28.40
2014,08,10,16,52,28.40
2014,08,10,16,53,28.50
2014,08,10,16,54,28.50
2014,08,10,16,55,28.60
2014,08,10,16,56,28.70
2014,08,10,16,57,28.70
2014,08,10,16,58,28.80
2014,08,10,16,59,28.80
2014,08,10,17,00,28.90
2014,08,10,17,01,28.90
2014,08,10,17,02,28.90
2014,08,10,17,03,28.90
2014,08,10,17,04,28.90
2014,08,10,17,05,28.80
2014,08,10,17,06,28.80
2014,08,10,17,07,28.70
2014,08,10,17,08,28.60
2014,08,10,17,09,28.60
2014,08,10,17,10,28.60
2014,08,10,17,11,28.60
2014,08,10,17,12,28.60
2014,08,10,17,13,28.60
2014,08,10,17,14,28.60
2014,08,10,17,15,28.60
2014,08,10,17,16,28.50
2014,08,10,17,17,28.50
2014,08,10,17,18,28.40
2014,08,10,17,19,28.40
2014,08,10,17,20,28.40
2014,08,10,17,21,28.40
2014,08,10,17,22,28.40